Location: Potomac
(46.8816°N, 113.5795°W)
Time: 17:57:18
(UTC+00:00)

UKube-1 - Pass Details

Date: 28 June 2022
Orbit: 608 x 615 km, 98.4° (Epoch: 18 August)

Event Time Altitude Azimuth Distance (km) Brightness Sun altitude
Rises 05:12:41 0° 19° (NNE) 2,898 ? -12.6°
Reaches altitude 10° 05:14:57 10° 25° (NNE) 1,987 ? -12.8°
Maximum altitude 05:19:07 46° 100° (E) 830 ? -13.2°
Enters shadow 05:21:48 20° 165° (SSE) 1,428 ? -13.4°
